TimeEDT,TemperatureF,Dew PointF,Humidity,Sea Level PressureIn,VisibilityMPH,Wind Direction,Wind SpeedMPH,Gust SpeedMPH,PrecipitationIn,Events,Conditions,WindDirDegrees,DateUTC
12:51 AM,71.1,69.1,93,30.01,3.0,Calm,Calm,-,N/A,,Clear,0,2013-09-09 04:51:00
1:51 AM,70.0,68.0,93,30.01,3.0,Calm,Calm,-,N/A,,Clear,0,2013-09-09 05:51:00
2:51 AM,69.1,66.9,93,30.01,2.5,Calm,Calm,-,N/A,,Clear,0,2013-09-09 06:51:00
2:58 AM,69.8,66.2,88,30.03,1.8,Calm,Calm,-,N/A,,Partly Cloudy,0,2013-09-09 06:58:00
3:16 AM,68.0,66.2,94,30.03,0.8,Calm,Calm,-,N/A,,Mist,0,2013-09-09 07:16:00
3:19 AM,68.0,66.2,94,30.03,0.2,Calm,Calm,-,N/A,Fog,Fog,0,2013-09-09 07:19:00
3:51 AM,66.9,66.0,97,30.01,0.2,Calm,Calm,-,N/A,Fog,Fog,0,2013-09-09 07:51:00
4:03 AM,66.2,66.2,100,30.03,0.5,Calm,Calm,-,N/A,Fog,Fog,0,2013-09-09 08:03:00
4:09 AM,66.2,64.4,94,30.04,0.2,Calm,Calm,-,N/A,Fog,Fog,0,2013-09-09 08:09:00
4:20 AM,66.2,64.4,94,30.04,0.5,Calm,Calm,-,N/A,Fog,Fog,0,2013-09-09 08:20:00
4:47 AM,66.2,66.2,100,30.04,1.5,Calm,Calm,-,N/A,,Mostly Cloudy,0,2013-09-09 08:47:00
4:51 AM,66.9,66.0,97,30.01,1.5,Calm,Calm,-,N/A,,Overcast,0,2013-09-09 08:51:00
5:04 AM,66.2,66.2,100,30.04,0.5,Calm,Calm,-,N/A,Fog,Fog,0,2013-09-09 09:04:00
5:14 AM,66.2,66.2,100,30.04,1.0,Calm,Calm,-,N/A,,Mist,0,2013-09-09 09:14:00
5:34 AM,66.2,64.4,94,30.05,0.5,Calm,Calm,-,N/A,Fog,Fog,0,2013-09-09 09:34:00
5:51 AM,66.0,64.9,96,30.03,0.2,Calm,Calm,-,N/A,Fog,Fog,0,2013-09-09 09:51:00
5:58 AM,66.2,64.4,94,30.06,0.5,Calm,Calm,-,N/A,Fog,Fog,0,2013-09-09 09:58:00
6:08 AM,64.4,64.4,100,30.06,0.2,Calm,Calm,-,N/A,Fog,Fog,0,2013-09-09 10:08:00
6:16 AM,66.2,64.4,94,30.06,0.5,Calm,Calm,-,N/A,Fog,Fog,0,2013-09-09 10:16:00
6:38 AM,66.2,64.4,94,30.06,1.8,Calm,Calm,-,N/A,,Mostly Cloudy,0,2013-09-09 10:38:00
6:51 AM,66.0,64.9,96,30.04,1.2,Calm,Calm,-,N/A,,Mostly Cloudy,0,2013-09-09 10:51:00
7:03 AM,66.2,64.4,94,30.07,0.2,ESE,3.5,-,N/A,Fog,Fog,110,2013-09-09 11:03:00
7:51 AM,66.0,64.9,96,30.05,0.2,Calm,Calm,-,N/A,Fog,Fog,0,2013-09-09 11:51:00
8:51 AM,69.1,66.9,93,30.06,1.0,Calm,Calm,-,N/A,,Mist,0,2013-09-09 12:51:00
9:10 AM,69.8,69.8,100,30.08,3.0,Calm,Calm,-,N/A,,Mist,0,2013-09-09 13:10:00
9:51 AM,75.0,70.0,84,30.07,6.0,Calm,Calm,-,N/A,,Haze,0,2013-09-09 13:51:00
10:51 AM,79.0,70.0,74,30.07,8.0,Variable,3.5,-,N/A,,Clear,0,2013-09-09 14:51:00
11:51 AM,82.0,70.0,67,30.07,10.0,Variable,3.5,-,N/A,,Clear,0,2013-09-09 15:51:00
12:51 PM,86.0,68.0,55,30.06,10.0,SSW,9.2,-,N/A,,Clear,210,2013-09-09 16:51:00
1:51 PM,87.1,68.0,53,30.05,10.0,South,8.1,-,N/A,,Clear,180,2013-09-09 17:51:00
2:51 PM,88.0,66.9,49,30.04,10.0,SSW,6.9,-,N/A,,Clear,210,2013-09-09 18:51:00
3:51 PM,89.1,68.0,50,30.03,10.0,Variable,5.8,-,N/A,,Scattered Clouds,0,2013-09-09 19:51:00
4:51 PM,88.0,68.0,51,30.01,10.0,South,6.9,-,N/A,,Partly Cloudy,190,2013-09-09 20:51:00
5:51 PM,87.1,69.1,55,30.01,10.0,South,4.6,-,N/A,,Clear,180,2013-09-09 21:51:00
6:51 PM,84.0,70.0,63,30.00,10.0,South,3.5,-,N/A,,Partly Cloudy,180,2013-09-09 22:51:00
7:51 PM,81.0,70.0,69,30.01,10.0,Calm,Calm,-,N/A,,Clear,0,2013-09-09 23:51:00
8:51 PM,78.1,70.0,76,30.04,9.0,Calm,Calm,-,N/A,,Clear,0,2013-09-10 00:51:00
9:51 PM,75.9,71.1,85,30.05,7.0,Calm,Calm,-,N/A,,Clear,0,2013-09-10 01:51:00
10:51 PM,73.0,71.1,93,30.05,7.0,Calm,Calm,-,N/A,,Clear,0,2013-09-10 02:51:00
11:51 PM,73.0,71.1,93,30.06,7.0,Calm,Calm,-,N/A,,Clear,0,2013-09-10 03:51:00